Chadron, NE

4:18 AM MST on December 14, 2017 (GMT -0700)
Chadron Municipal

Weather History for KCDR - August, 2013

Change the Weather History Date:

Thursday, August 15, 2013

  Actual Average Record
Temperature  
Mean Temperature 72 °F 73 °F  
Max Temperature 84 °F 90 °F 105 °F (2015)
Min Temperature 59 °F 56 °F 35 °F (1942)
Degree Days  
Heating Degree Days 0 0  
Month to date heating degree days 0 0  
Since 1 June heating degree days 58 91  
Since 1 July heating degree days 0 10  
Cooling Degree Days 7 8  
Month to date cooling degree days 113 138  
Year to date cooling degree days 571 542  
Since 1 June cooling degree days 543 522  
Growing Degree Days 21 (Base 50)    
Moisture  
Dew Point 57 °F    
Average Humidity 64    
Maximum Humidity 90    
Minimum Humidity 37    
Precipitation  
Precipitation 0.00 in 0.05 in 1.75 in (1927)
Month to date precipitation 1.39 0.79  
Year to date precipitation 12.31 13.08  
Sea Level Pressure  
Sea Level Pressure 30.02 in    
Wind  
Wind Speed 6 mph (NNE)    
Max Wind Speed 21 mph    
Max Gust Speed 29 mph    
Visibility 10 miles    
Events      
T = Trace of Precipitation, MM = Missing Value Source: NWS Daily Summary

Daily Weather History Graph

Daily Weather History Graph

Search for Another Location

Airport or City:

Trip Planner

Search our weather history database for the weather conditions in past years. The results will help you decide how hot, cold, wet, or windy it might be!

Date:

Astronomy

Aug. 15, 2013 Rise Set
Actual Time 5:58 AM MDT 7:53 PM MDT
Civil Twilight 5:28 AM MDT 8:24 PM MDT
Nautical Twilight 4:51 AM MDT 9:01 PM MDT
Astronomical Twilight 4:10 AM MDT 9:41 PM MDT
Moon 3:16 PM MDT (8/15) 12:07 AM MDT (8/15)
Length of Visible Light 14h 55m
Length of Day
13h 54m
Waxing Gibbous, 65% of the Moon is Illuminated
Aug 15
Waxing Gibbous
Aug 20
Full
Aug 28
Last Quarter
Sep 5
New
Sep 12
First Quarter

Hourly Weather History & Observations

Time (MDT) Temp. Heat Index Dew Point Humidity Pressure Visibility Wind Dir Wind Speed Gust Speed Precip Events Conditions
12:53 AM 63.0 °F - 57.0 °F 81% 29.98 in 10.0 mi SSW 3.5 mph - N/A   Clear
1:53 AM 61.0 °F - 57.0 °F 87% 29.98 in 10.0 mi North 4.6 mph - N/A   Clear
2:53 AM 61.0 °F - 57.0 °F 87% 29.99 in 10.0 mi Calm Calm - N/A   Clear
3:53 AM 60.1 °F - 57.0 °F 90% 29.96 in 10.0 mi SE 11.5 mph - N/A   Scattered Clouds
4:53 AM 62.1 °F - 55.9 °F 80% 30.01 in 10.0 mi NNW 17.3 mph 28.8 mph N/A   Clear
5:53 AM 62.1 °F - 55.9 °F 80% 30.03 in 10.0 mi NW 3.5 mph - N/A   Mostly Cloudy
6:53 AM 61.0 °F - 57.0 °F 87% 30.00 in 10.0 mi SW 6.9 mph - 0.00 in   Clear
7:53 AM 64.0 °F - 57.0 °F 78% 30.01 in 10.0 mi Calm Calm - N/A   Clear
8:53 AM 71.1 °F - 57.0 °F 61% 30.04 in 10.0 mi NNE 8.1 mph - N/A   Clear
9:53 AM 71.1 °F - 54.0 °F 55% 30.04 in 10.0 mi NNW 6.9 mph - N/A   Mostly Cloudy
10:53 AM 72.0 °F - 57.0 °F 59% 30.10 in 10.0 mi North 8.1 mph - N/A   Clear
11:53 AM 75.0 °F - 55.9 °F 51% 30.05 in 10.0 mi NNW 5.8 mph - N/A   Clear
12:53 PM 78.1 °F - 55.0 °F 45% 30.02 in 10.0 mi NNE 5.8 mph - N/A   Clear
1:53 PM 80.1 °F 80.2 °F 55.9 °F 43% 30.01 in 10.0 mi SE 3.5 mph - N/A   Clear
2:53 PM 81.0 °F 81.1 °F 57.9 °F 45% 30.00 in 10.0 mi Variable 5.8 mph - N/A   Clear
3:53 PM 82.9 °F 82.0 °F 55.0 °F 38% 29.99 in 10.0 mi North 3.5 mph - N/A   Clear
4:53 PM 82.9 °F 81.9 °F 54.0 °F 37% 29.98 in 10.0 mi East 6.9 mph - N/A   Clear
5:53 PM 82.0 °F 81.6 °F 55.9 °F 41% 29.99 in 10.0 mi ENE 9.2 mph - N/A   Clear
6:53 PM 80.1 °F 80.6 °F 57.9 °F 47% 30.00 in 10.0 mi NE 9.2 mph - N/A   Clear
7:53 PM 73.9 °F - 62.1 °F 66% 30.03 in 10.0 mi ENE 9.2 mph - N/A   Clear
8:53 PM 70.0 °F - 63.0 °F 78% 30.04 in 10.0 mi ENE 4.6 mph - N/A   Clear
9:53 PM 66.0 °F - 63.0 °F 90% 30.07 in 10.0 mi NNE 4.6 mph - N/A   Clear
11:53 PM 66.0 °F - 62.1 °F 87% 30.08 in 10.0 mi Calm Calm - N/A   Clear